This demonstration page uses our WeatherBlox Daily Observations layout. Learn more.

Left ArrowRight Arrow

Hourly Observations for May 31, 2018

Temp ( °F °C ) Dew Point ( °F °C ) Humidity (%) Winds ( mph kmh ) Pressure ( in mb ) Visibility ( mi km ) Precip ( " mm )
12:51 am 00:51 Clear 74 23.3 12 -11.1 9 9 WNW 8 13 29.66 1004 10 16 0.00 0.00
1:51 am 01:51 Clear 75 23.9 13 -10.6 9 9 NW 9 15 29.67 1005 10 16 0.00 0.00
2:51 am 02:51 Clear 68 20 13 -10.6 12 12 S 6 9 29.68 1005 10 16 0.00 0.00
3:51 am 03:51 Clear 64 17.8 12 -11.1 13 13 S 6 9 29.70 1006 10 16 0.00 0.00
4:51 am 04:51 Clear 64 17.8 14 -10 14 14 E 5 7 29.72 1007 10 16 0.00 0.00
5:51 am 05:51 Sunny 62 16.7 13 -10.6 14 14 NE 5 7 29.75 1007 10 16 0.00 0.00
6:51 am 06:51 Sunny 69 20.6 15 -9.4 12 12 undefined N/A 29.75 1007 10 16 0.00 0.00
7:51 am 07:51 Sunny 75 23.9 16 -8.9 10 10 Calm 29.75 1008 10 16 0.00 0.00
8:51 am 08:51 Sunny 83 28.3 14 -10 7 7 Calm 29.75 1007 10 16 0.00 0.00
9:51 am 09:51 Sunny 87 30.6 14 -10 6 6 SE 7 11 29.73 1007 10 16 0.00 0.00
10:51 am 10:51 Sunny 92 33.3 14 -10 5 5 ESE 8 13 29.72 1006 10 16 0.00 0.00
11:51 am 11:51 Sunny 92 33.3 14 -10 5 5 VRB 5 7 29.70 1006 10 16 0.00 0.00
12:51 pm 12:51 Sunny 98 36.7 13 -10.6 4 4 VRB 7 11 29.67 1005 10 16 0.00 0.00
1:51 pm 13:51 Sunny 98 36.7 13 -10.6 4 4 undefined N/A 29.65 1004 10 16 0.00 0.00
2:51 pm 14:51 Sunny 97 36.1 11 -11.7 4 4 SE 5 7 29.65 1004 10 16 0.00 0.00
3:51 pm 15:51 Sunny 100 37.8 8 -13.3 3 3 WNW 8 13 29.63 1003 10 16 0.00 0.00
4:51 pm 16:51 Sunny 99 37.2 -3 -19.4 2 2 W 12 19 29.62 1003 10 16 0.00 0.00
5:51 pm 17:51 Sunny 99 37.2 1 -17.2 2 2 W 18 30 29.62 1003 10 16 0.00 0.00
6:51 pm 18:51 Sunny 95 35 -2 -18.9 2 2 WNW 15 24 29.63 1003 10 16 0.00 0.00
7:51 pm 19:51 Clear 88 31.1 1 -17.2 3 3 WNW 8 13 29.65 1004 10 16 0.00 0.00
8:51 pm 20:51 Clear 84 28.9 1 -17.2 4 4 NW 10 17 29.67 1005 10 16 0.00 0.00
9:51 pm 21:51 Clear 84 28.9 4 -15.6 4 4 NW 15 24 29.68 1005 10 16 0.00 0.00
10:51 pm 22:51 Clear 80 26.7 9 -12.8 6 6 NW 13 20 29.71 1006 10 16 0.00 0.00
11:51 pm 23:51 Clear 78 25.6 10 -12.2 7 7 NW 10 17 29.72 1006 10 16 0.00 0.00

Powered by AerisWeather